Temp
23 23 23 23 23 23 24 24 24 24 24 25 25 25 25 25 26 26 26 26 27 27 27 28 28 28 28 28 28 28 27 27 27 27 27 26 25 25 25 25 24 24 23 23 23 22 22 22 22 22 22 22 21 21 21 21 21 21 22 22 22 22 22 23 23 23 23 23 24 23 23 23 23 23 23 23 23 23 23 23 23 22 22 22 22
23 23 23 23 23 24 24 24 24 24 25 25 25 25 25 26 26 26 26 26 27 27 27 28 29 29 28 28 29 28 28 28 27 27 27 27 26 25 25 25 24 24 24 24 24 24 24 24 24 23 23 23 23 22 22 22 23 23 23 23 23 23 23 23 23 24 24 24 24 24 24 24 23 23 23 23 23 23 23 23 23 23 22 22 22
23 23 23 23 24 24 24 25 25 24 25 25 25 25 25 26 26 26 26 26 27 27 28 28 29 29 29 29 29 29 28 28 28 28 28 27 26 25 25 25 25 25 25 25 25 25 25 25 25 24 24 24 24 24 24 24 24 24 24 24 24 24 24 24 24 24 24 24 24 24 24 24 24 24 24 23 23 23 23 23 23 23 23 22 22
23 23 23 24 24 24 24 25 25 25 25 25 25 25 25 26 25 25 26 26 27 28 28 29 29 29 29 29 29 29 29 29 29 29 28 27 26 26 26 25 26 26 26 25 25 25 25 25 25 25 25 24 24 24 24 24 24 24 24 24 24 24 24 24 24 24 24 24 24 24 24 24 24 24 24 24 24 23 23 23 23 23 23 23 22
23 23 24 24 24 24 25 25 25 25 25 25 25 25 26 26 26 26 27 27 28 28 29 30 29 29 30 30 29 29 29 29 29 29 29 28 27 27 26 26 25 26 26 26 26 26 25 25 25 25 25 25 25 25 25 25 25 25 25 25 25 25 24 24 24 24 25 25 24 25 25 25 25 24 24 24 24 24 24 23 23 23 23 23 23
22 23 24 25 24 25 25 25 25 25 25 25 25 26 26 27 27 27 27 28 29 29 29 30 29 30 30 30 30 29 29 29 29 29 29 29 28 27 27 26 26 26 26 26 26 26 26 26 25 25 25 26 26 26 26 26 26 25 25 25 25 25 25 24 24 25 25 25 25 25 25 25 25 25 24 24 24 24 24 24 23 23 23 23 23
22 23 24 25 25 25 25 25 24 25 25 25 25 26 26 27 27 27 28 28 29 29 29 29 29 30 29 30 30 29 29 29 29 29 29 29 28 28 27 27 27 26 26 26 27 26 26 26 26 26 26 26 26 26 26 26 26 26 26 26 26 26 25 24 25 25 25 25 25 25 25 25 25 25 25 24 24 24 24 24 24 23 23 23 23
22 23 24 25 25 25 25 24 24 25 25 25 25 26 26 27 26 27 27 28 29 30 29 29 30 30 30 30 30 29 30 30 29 30 29 29 29 28 28 27 27 27 26 27 27 27 26 26 26 26 26 26 26 26 26 26 26 26 26 26 26 26 26 26 25 25 25 25 25 26 25 25 25 25 25 25 24 24 24 24 24 24 24 23 23
22 22 23 25 25 25 25 24 24 24 25 25 26 26 26 27 26 26 27 27 29 30 30 30 30 30 30 30 30 29 30 29 30 30 29 29 29 29 29 28 28 27 27 28 27 27 27 27 26 26 26 27 27 27 27 27 27 27 27 27 27 27 27 27 26 26 26 26 26 26 26 26 26 25 25 25 25 25 25 25 24 24 24 24 24
23 22 23 24 25 25 25 24 24 24 24 25 26 26 26 26 27 26 26 27 28 29 29 30 30 31 31 31 30 29 30 29 29 29 29 29 29 29 30 29 29 28 28 28 28 28 27 27 27 27 27 27 27 27 27 27 27 27 27 27 27 27 27 27 27 27 27 26 26 26 26 26 26 26 26 26 26 26 26 25 25 25 24 24 24
23 23 23 24 25 25 24 24 24 24 25 25 26 26 25 26 26 26 27 27 28 29 29 29 30 31 31 31 30 30 30 29 29 29 30 30 30 30 30 30 30 29 29 29 29 29 28 28 28 27 28 27 27 28 27 28 27 27 27 27 27 27 27 27 27 27 27 27 27 26 26 26 26 26 26 26 26 26 26 26 25 25 24 24 24
23 23 23 24 24 25 24 24 24 24 25 25 26 26 25 25 26 26 27 28 28 29 29 29 30 30 30 30 30 30 30 30 30 30 30 30 30 30 31 30 30 30 29 29 29 29 29 28 28 28 28 28 28 28 28 28 28 28 28 28 28 28 27 27 27 27 27 27 27 26 26 26 26 26 26 26 26 26 26 26 26 25 25 24 24
23 23 24 24 24 24 24 24 24 24 24 25 25 25 25 25 26 26 27 28 28 29 29 29 30 30 30 31 31 30 30 30 30 31 31 31 31 31 31 31 31 30 30 30 29 29 29 29 28 28 28 28 28 28 28 28 28 28 28 28 28 28 28 27 27 27 27 27 27 26 26 26 26 26 26 26 26 26 26 26 26 26 25 25 25
24 24 24 24 24 24 24 24 24 24 24 24 24 24 25 25 26 27 28 28 28 29 29 29 30 31 31 31 32 31 31 31 31 31 32 32 31 31 31 31 31 31 31 30 29 30 30 30 29 29 29 28 28 28 28 28 28 28 28 28 28 28 28 27 27 27 27 27 27 26 26 26 26 26 26 26 26 26 26 25 26 26 26 26 25
24 24 24 24 24 24 24 24 24 24 24 24 24 25 25 26 26 27 27 28 29 29 28 29 30 31 31 31 32 32 31 31 32 32 32 32 32 32 32 32 32 31 31 31 30 30 30 30 30 29 28 28 28 28 28 28 28 28 28 28 28 28 28 27 27 27 27 27 27 27 27 27 27 27 27 27 27 26 26 26 26 26 26 26 25
24 24 24 24 24 24 25 24 24 24 24 24 25 25 26 26 26 26 27 28 29 29 29 29 29 30 30 31 32 32 31 31 32 32 32 32 32 32 32 32 32 31 31 31 31 31 30 30 30 29 28 29 29 28 28 28 28 28 28 28 28 28 27 27 27 27 27 27 27 27 27 27 27 27 28 28 27 27 27 26 26 26 26 26 26
24 24 24 24 24 24 24 24 24 24 25 25 25 26 26 26 26 26 27 27 28 29 29 29 29 29 29 30 31 31 30 32 32 32 32 33 32 32 32 32 32 32 31 31 31 31 31 31 30 29 28 28 28 28 27 27 27 27 27 27 27 27 27 27 27 27 27 27 27 27 27 27 28 28 28 28 28 27 27 27 26 26 26 27 26
24 24 24 24 24 24 24 24 24 24 24 25 25 25 26 26 26 26 27 26 27 28 29 29 29 28 29 29 29 30 30 31 31 31 31 32 32 32 32 32 32 32 31 32 31 31 31 31 30 30 29 28 28 27 27 27 26 26 27 27 27 27 27 27 27 27 27 27 27 27 27 27 28 28 28 28 27 27 27 27 27 26 26 27 26
25 24 24 24 24 24 24 24 24 25 25 25 25 26 26 26 26 26 26 26 26 27 28 29 29 29 30 30 30 30 30 30 31 31 31 31 32 32 32 32 32 32 32 32 32 32 31 30 30 31 29 27 27 27 27 27 27 26 26 27 27 27 27 27 27 27 27 27 27 27 27 27 27 27 27 27 27 27 27 27 27 27 27 26 26
24 24 24 24 24 24 24 24 24 25 25 25 26 26 26 26 25 25 25 25 26 26 27 28 29 29 29 30 30 30 30 30 31 31 31 31 30 30 31 32 32 32 32 32 32 32 30 30 30 30 29 27 27 27 27 27 26 26 26 27 27 27 27 27 27 27 27 27 27 27 27 27 27 27 27 27 27 27 27 27 27 27 26 26 26
24 24 24 24 24 24 24 24 24 24 25 25 26 25 25 25 25 25 25 25 26 26 26 27 28 29 29 29 29 30 30 31 31 31 31 31 28 27 30 32 32 31 31 31 31 31 31 30 30 30 29 28 27 27 27 26 26 26 26 27 27 27 27 27 27 27 27 27 27 27 27 27 27 27 27 27 27 26 26 26 26 26 26 26 26
25 24 24 24 24 24 24 24 24 25 25 25 25 25 25 25 25 25 25 25 26 26 26 27 27 28 29 28 28 29 30 30 31 31 31 30 29 30 31 32 32 31 31 31 31 31 31 30 30 30 29 28 28 27 27 26 26 27 27 27 27 27 27 27 27 27 27 27 27 27 27 27 27 27 27 27 27 26 26 26 26 26 26 26 26
25 25 24 24 24 24 24 25 25 25 25 25 25 26 26 26 26 25 25 25 25 26 26 27 27 27 28 28 29 29 30 30 30 30 30 30 29 30 32 32 31 31 31 30 30 30 30 30 30 30 29 28 28 27 27 27 27 27 27 26 27 27 27 27 27 27 27 27 27 27 27 27 27 27 27 27 27 26 26 25 25 25 25 26 26
26 26 25 25 25 25 25 25 25 24 25 25 25 25 26 26 26 25 25 25 25 25 26 27 27 27 28 29 29 30 30 30 30 30 30 30 29 30 31 31 31 31 31 30 30 30 30 30 30 29 28 28 28 27 27 28 27 27 27 26 27 27 27 27 27 27 27 27 27 27 27 27 27 27 27 27 26 26 26 25 25 25 25 25 25
26 26 26 26 25 25 25 25 25 24 24 24 24 25 25 25 25 25 25 25 25 25 26 26 27 27 28 29 29 30 30 30 30 30 30 30 29 30 31 30 31 31 31 30 30 30 30 30 30 29 28 28 28 27 27 28 28 27 27 26 26 27 27 27 27 27 27 27 26 26 26 27 27 27 27 27 26 25 25 25 25 25 25 25 25
26 26 26 26 26 25 25 25 25 24 24 24 24 24 24 24 25 25 25 25 25 25 26 26 27 27 27 28 28 29 29 29 29 30 30 30 30 30 30 30 30 31 31 30 30 30 30 30 30 29 28 28 28 27 27 28 28 27 27 27 26 27 27 27 27 27 26 26 26 26 26 26 27 27 27 26 26 25 25 25 25 25 25 25 25
26 26 26 26 26 26 25 25 25 24 24 24 24 24 24 24 25 25 25 25 25 25 26 26 27 27 27 27 28 28 29 29 29 29 30 30 30 30 29 29 29 30 31 31 30 30 30 30 30 29 28 27 27 27 27 28 28 27 27 27 26 26 27 27 27 26 26 26 26 26 26 26 26 27 26 26 25 25 25 25 25 25 25 25 25
26 26 25 25 25 25 25 25 25 25 24 24 24 24 24 24 24 24 25 26 26 25 26 26 27 27 27 27 27 28 28 28 29 29 29 29 29 29 29 28 28 28 29 30 30 30 30 30 30 29 28 27 27 27 27 27 28 27 27 27 27 26 26 27 26 26 26 26 26 26 26 26 26 26 26 25 25 25 25 25 25 25 25 25 25
26 26 26 25 25 25 25 26 25 25 25 25 24 25 24 24 25 24 25 26 26 25 25 26 26 27 27 27 27 27 28 28 28 29 28 28 28 28 28 29 28 27 28 28 29 30 30 30 30 28 27 27 27 27 28 28 27 27 27 28 27 26 26 26 26 26 26 26 26 26 26 26 26 26 26 25 25 25 25 25 25 25 25 25 26
26 26 26 26 25 25 25 25 25 25 25 25 25 25 24 25 25 25 25 25 25 25 25 26 26 26 27 27 27 27 27 27 28 28 28 27 27 28 28 28 28 27 28 27 28 29 29 30 30 28 27 27 27 28 28 28 27 27 27 28 27 27 26 26 26 26 25 25 25 25 25 26 26 25 25 25 24 24 24 24 25 25 25 25 25
26 26 26 26 26 25 25 25 26 25 25 25 25 25 24 25 25 25 25 25 25 25 25 25 26 26 26 26 26 26 27 27 27 28 28 27 27 28 28 28 27 27 27 27 27 28 29 29 29 29 28 28 28 28 29 28 28 27 27 27 27 27 27 26 26 26 26 25 25 25 25 25 25 25 25 24 24 24 24 24 24 25 25 25 25
27 26 26 26 26 26 26 26 26 26 26 26 26 25 25 25 25 26 26 25 25 25 25 26 26 26 26 26 26 26 26 27 27 27 28 27 27 27 27 27 27 27 27 27 27 27 28 28 29 29 29 28 28 28 28 28 28 27 27 27 27 27 27 27 26 27 26 25 25 25 25 25 25 24 24 24 23 23 24 24 24 24 24 24 24
27 26 26 26 26 26 26 27 27 26 26 26 26 26 25 25 25 25 25 25 25 25 25 25 26 26 26 26 26 26 26 26 27 27 28 28 27 27 27 27 27 27 27 27 27 27 27 28 28 28 29 28 28 28 28 28 29 28 27 28 27 27 28 28 27 27 26 26 25 25 25 25 24 24 23 23 23 23 23 24 24 24 24 24 24
27 27 27 26 26 26 26 26 26 26 26 25 25 26 26 25 25 25 26 25 25 25 25 25 25 26 26 25 25 26 26 26 26 27 27 28 28 28 28 28 28 28 27 27 27 27 27 27 28 28 28 28 28 28 27 28 28 28 27 28 28 28 29 28 28 27 26 26 25 24 24 24 24 23 23 23 23 23 23 23 23 23 23 23 24
27 27 26 27 27 26 26 26 26 26 26 25 26 26 26 25 25 26 26 26 26 26 25 25 25 26 26 26 26 26 27 27 27 27 27 28 28 28 28 28 28 27 27 27 26 27 27 27 28 28 28 28 27 28 27 27 27 27 27 28 28 29 28 28 28 28 27 26 25 24 24 24 23 23 23 22 22 23 23 23 23 23 23 23 23
27 27 27 27 26 26 26 26 26 26 26 26 26 26 26 26 25 26 26 26 26 26 26 26 26 26 26 26 26 26 27 27 26 27 27 27 27 27 27 27 27 27 27 27 26 26 26 27 27 27 28 27 27 27 27 27 28 27 27 27 28 28 28 28 29 29 27 26 25 25 24 23 23 23 22 22 22 22 22 22 22 22 22 23 23
28 27 27 26 26 26 26 26 26 26 26 26 26 26 26 26 26 26 26 26 26 26 26 26 26 26 26 26 26 26 26 26 26 27 27 27 27 27 27 27 27 27 27 27 26 26 26 26 27 27 27 27 27 27 27 27 28 28 27 27 27 27 27 27 28 29 28 27 26 25 24 24 23 23 22 22 22 22 22 22 22 22 22 22 23
28 28 27 27 27 26 26 26 26 26 26 26 26 26 26 26 26 26 26 26 26 26 26 26 26 26 26 26 26 26 26 26 27 27 27 27 27 27 27 27 27 27 27 27 26 26 26 26 26 27 27 27 27 27 27 27 27 28 27 27 27 27 26 27 27 28 28 27 26 25 25 24 23 23 22 22 21 22 22 22 22 22 22 22 22
27 28 28 27 27 27 26 26 27 26 26 26 26 26 26 26 26 26 26 26 26 26 26 26 26 26 26 26 26 26 26 26 26 27 27 27 27 27 27 27 27 26 27 27 27 26 26 27 27 27 27 28 27 27 27 26 26 27 27 27 27 27 26 26 26 27 27 26 26 26 25 24 23 23 22 21 21 22 22 23 23 22 22 22 22
27 27 28 27 27 27 27 27 27 27 26 26 26 26 26 26 26 26 26 26 26 26 26 26 26 27 27 27 27 27 27 27 26 26 27 27 26 26 26 26 26 26 26 27 26 26 26 27 27 26 26 27 27 27 27 27 27 27 27 27 27 27 26 26 26 26 25 25 26 26 25 24 23 22 22 21 21 21 22 23 23 22 21 21 21
27 27 27 27 27 27 27 27 27 27 26 26 26 26 26 26 26 26 26 26 26 26 26 26 27 27 27 27 27 27 27 27 26 26 26 26 25 25 25 24 24 25 24 24 25 25 25 25 25 24 24 24 25 25 26 27 27 27 27 26 26 26 26 26 26 26 25 25 26 26 25 25 24 23 22 22 22 21 22 23 22 21 21 21 21
27 27 27 27 27 27 27 27 27 27 27 27 26 26 26 26 26 26 27 26 26 26 26 26 26 27 27 27 27 27 27 26 26 25 25 25 25 25 25 24 24 24 23 23 23 23 23 23 24 24 24 23 23 23 26 28 28 27 27 26 26 26 26 26 26 25 24 25 25 25 25 25 25 24 23 23 22 21 21 22 21 21 21 21 21
27 27 27 27 27 27 27 27 27 27 27 27 26 26 25 25 26 26 26 26 26 26 26 26 26 26 27 27 27 27 27 26 26 25 25 25 25 25 25 24 24 24 23 22 22 23 23 23 24 24 24 23 22 22 26 29 28 27 27 26 26 26 25 26 26 25 24 23 24 24 24 24 24 24 23 22 21 21 20 21 21 21 21 21 21
25 26 26 26 27 27 27 27 27 27 27 27 26 25 25 25 25 25 25 26 25 26 26 26 26 27 27 27 27 28 28 27 27 26 25 25 25 25 25 25 25 24 24 23 23 24 23 23 24 25 24 24 22 22 25 28 28 26 26 26 25 25 25 25 26 25 23 23 23 24 24 24 25 24 22 21 21 20 20 20 20 21 21 21 21
24 24 26 26 26 26 27 27 27 28 28 27 26 25 25 25 25 25 25 25 25 25 25 25 25 26 26 26 27 27 28 27 27 26 25 25 25 25 25 25 25 25 24 24 24 24 24 23 24 24 25 24 22 22 25 27 26 25 26 25 25 25 25 25 24 24 23 22 24 24 23 24 25 24 22 21 21 20 20 20 20 21 21 21 21
22 22 24 25 25 25 25 25 25 26 26 25 25 25 25 25 25 24 24 24 24 25 25 25 25 25 25 25 25 25 26 26 26 25 25 24 24 24 25 25 25 25 24 24 25 24 24 24 23 23 24 24 23 23 25 25 24 25 25 25 25 25 25 24 23 22 22 22 23 24 24 24 25 25 23 22 21 20 20 20 20 20 21 21 21
21 21 21 22 23 24 24 24 24 23 23 23 23 24 24 24 24 23 23 24 24 24 24 24 24 25 25 25 24 24 24 25 25 25 24 25 24 24 24 25 25 25 25 24 24 24 24 24 24 24 24 24 23 24 25 24 24 24 24 24 24 24 24 24 23 22 22 22 22 23 24 24 25 25 24 23 22 21 20 20 20 20 20 20 20
21 21 20 20 21 22 23 23 23 23 22 22 22 23 24 23 24 24 24 24 23 23 23 23 24 24 24 24 24 24 23 24 24 24 24 24 24 24 25 25 25 25 25 24 24 24 24 24 24 24 24 24 24 25 25 24 24 24 23 23 23 23 24 24 24 23 22 22 22 22 24 25 24 24 24 24 23 23 21 20 20 20 20 20 20
20 20 20 20 21 21 22 22 22 22 22 22 22 23 23 23 23 23 23 23 23 23 24 23 23 23 24 24 24 23 23 24 24 24 24 24 24 24 24 25 25 25 25 24 24 24 24 24 24 25 25 24 24 24 24 23 23 23 23 23 24 24 24 24 25 25 23 22 22 21 23 24 24 24 24 24 23 23 23 21 20 20 20 20 19
20 20 20 20 21 21 21 22 22 22 22 21 21 22 22 22 22 22 21 22 22 23 24 24 23 23 24 24 23 22 23 24 24 23 24 23 23 23 24 24 24 25 24 24 24 24 23 24 24 24 24 24 23 23 23 23 23 23 22 23 24 24 24 24 25 25 24 22 20 21 22 24 24 23 24 24 24 24 23 22 20 20 20 20 19
19 19 19 20 20 21 21 21 21 21 21 21 21 21 21 21 21 20 20 21 21 22 23 23 23 23 23 23 23 22 23 23 23 23 23 23 22 23 23 24 24 24 24 24 23 23 22 23 23 23 23 23 22 22 22 22 22 22 22 22 23 23 24 24 24 25 24 22 20 20 22 23 23 23 23 23 24 24 23 22 21 21 20 20 20
Height
859 859 860 860 861 862 863 863 864 864 864 864 864 864 864 863 863 863 863 863 861 861 861 860 860 860 860 860 860 861 861 862 862 862 863 863 863 863 863 863 863 863 863 863 863 864 864 864 864 864 864 865 865 865 865 866 865 865 864 863 862 861 860 858 857 856 855 855 854 852 851 850 850 849 849 848 847 846 846 845 844 844 843 842 842
858 859 860 860 861 862 863 863 864 864 864 864 864 864 864 864 863 863 863 862 862 861 861 860 859 859 860 860 860 860 861 862 862 862 862 863 863 863 863 862 863 863 863 863 863 863 863 863 863 863 864 864 864 864 864 864 864 864 864 863 862 861 861 860 858 857 856 855 854 853 851 850 849 849 848 848 847 846 845 844 843 842 842 841 840
858 859 860 861 861 862 863 863 863 864 864 864 864 864 864 864 864 863 863 862 862 861 860 860 859 859 859 860 860 860 861 861 861 861 862 863 863 863 863 862 862 862 862 863 863 863 863 863 863 863 863 863 863 863 863 863 863 863 863 862 862 862 861 861 860 858 856 855 854 853 851 850 849 848 847 847 846 845 844 843 842 841 840 840 839
858 859 860 861 861 862 863 863 863 864 864 864 864 865 864 864 864 863 863 862 862 861 860 859 859 859 859 860 860 860 861 861 861 861 862 862 863 863 863 863 862 862 862 862 862 863 862 862 862 862 862 862 862 862 862 862 862 862 861 861 861 861 862 861 859 857 855 854 853 852 850 849 848 847 846 846 845 844 843 842 841 840 839 838 837
859 860 860 861 862 862 862 863 863 863 864 864 864 865 864 864 864 863 863 862 861 861 860 859 859 859 859 859 860 861 861 861 861 861 862 862 862 863 863 863 862 862 862 862 862 862 862 862 862 862 862 862 861 861 861 861 861 860 860 860 859 860 861 861 858 856 854 853 852 851 849 848 847 846 845 844 843 842 842 841 840 839 838 837 835
859 860 861 861 862 862 863 863 863 864 864 864 864 865 864 864 864 863 863 862 861 861 860 859 859 859 859 859 860 861 861 861 861 861 862 862 862 863 863 863 863 862 862 862 862 862 862 862 861 861 861 861 861 861 861 860 860 859 859 858 858 858 860 860 857 855 853 852 850 849 848 847 846 845 844 843 842 841 840 839 838 837 836 835 834
859 860 861 861 862 862 863 863 864 864 864 864 864 865 864 864 864 863 863 862 861 860 860 860 859 859 860 860 860 861 861 861 862 861 862 862 862 863 863 863 863 863 862 862 862 862 862 861 861 861 861 861 860 860 860 859 859 858 858 857 856 856 856 858 856 853 852 850 849 848 847 846 844 844 842 841 840 839 838 837 836 835 834 833 832
859 860 861 862 862 862 863 863 864 864 864 865 865 865 864 864 864 864 863 862 861 859 860 860 859 859 860 860 861 861 861 861 861 861 862 862 862 862 862 863 863 862 862 863 862 862 861 861 861 861 860 860 860 859 859 858 858 857 856 856 855 854 853 854 853 852 850 848 847 846 845 844 843 842 841 840 838 837 836 835 834 833 832 831 830
860 860 861 862 862 862 863 864 864 864 865 865 865 865 864 864 864 864 864 863 861 860 859 859 859 859 859 859 860 861 861 862 862 861 862 862 862 862 862 862 862 862 862 862 862 862 861 861 861 860 860 860 859 859 858 857 857 856 855 854 854 853 852 851 851 850 848 847 846 845 844 843 842 841 840 838 837 835 834 833 832 831 830 829 828
860 861 861 862 863 863 863 864 865 865 865 865 865 865 865 865 864 864 864 863 862 860 860 859 858 858 858 859 860 861 861 862 862 862 862 862 862 862 862 862 862 862 862 862 862 862 862 861 860 860 859 859 858 858 857 856 856 855 854 853 853 852 851 850 849 848 847 846 845 844 843 842 841 840 838 837 835 834 832 831 830 829 828 827 826
861 861 862 862 863 863 864 864 865 865 865 865 865 865 865 865 865 865 864 863 862 861 861 860 859 858 858 859 860 861 861 862 862 862 861 861 861 861 861 862 862 862 862 862 862 861 861 861 860 859 859 858 857 857 856 855 854 854 853 852 852 851 850 849 848 847 846 845 844 843 842 841 840 839 837 835 834 832 831 830 829 827 827 826 824
861 861 862 863 863 864 864 865 865 865 865 865 865 865 865 865 865 865 864 863 862 862 861 861 859 859 859 859 860 860 861 861 861 861 860 860 860 860 860 860 861 861 861 861 862 861 860 860 859 859 859 857 857 856 855 854 853 853 852 851 851 850 849 848 847 846 845 844 843 842 841 840 839 838 836 834 833 831 830 828 827 826 825 824 823
861 861 862 863 863 864 865 865 865 865 865 865 865 865 865 865 865 865 864 863 862 861 861 861 859 858 859 858 858 859 860 860 860 859 858 858 859 859 859 859 859 860 860 860 861 861 859 859 859 858 858 857 856 855 854 853 852 851 851 850 850 849 848 847 846 845 844 844 842 841 840 839 838 836 835 833 831 830 829 827 826 824 823 822 822
861 861 862 863 864 864 864 865 865 865 865 865 865 865 865 865 865 864 864 863 863 862 862 861 858 857 858 857 856 858 858 858 858 857 856 856 857 857 858 857 857 858 858 859 859 859 858 858 858 857 857 856 855 855 854 852 851 850 850 849 849 848 847 846 845 844 844 843 841 841 839 838 837 835 833 832 830 829 827 826 824 823 822 821 820
861 861 862 863 864 864 864 864 865 865 865 865 865 865 865 865 865 865 864 863 862 862 862 861 858 858 858 858 856 857 859 857 855 856 855 855 855 855 856 856 856 856 857 857 857 856 856 856 856 856 855 854 854 853 853 852 851 849 848 848 848 847 847 845 845 844 843 842 841 840 838 837 836 834 832 830 829 827 826 825 823 822 820 819 819
861 862 862 863 863 864 864 864 864 864 864 864 865 865 865 865 865 865 864 863 861 861 862 861 860 859 858 858 856 857 862 858 853 854 854 854 854 854 855 855 854 855 856 855 855 855 855 855 855 855 854 853 852 852 853 853 851 849 848 848 847 846 846 845 844 843 842 841 840 838 837 836 834 833 831 829 827 826 825 823 822 821 819 818 817
861 861 862 863 863 863 864 864 864 864 864 864 865 864 865 865 865 865 865 864 863 862 862 862 862 861 860 860 860 862 862 856 854 855 854 852 853 853 854 854 853 854 855 854 854 854 854 854 854 855 854 853 853 853 854 854 853 851 849 848 847 846 845 844 843 842 841 840 839 838 836 835 833 832 830 828 827 825 824 822 821 819 818 817 816
861 861 862 862 863 863 863 864 864 864 864 864 865 864 865 865 865 865 865 865 865 863 862 861 862 862 861 860 862 862 860 856 857 858 855 853 852 852 853 853 852 853 854 853 853 852 853 854 854 853 854 854 855 854 853 852 852 852 850 848 847 845 844 844 843 842 841 839 838 837 836 834 833 831 830 828 826 825 823 821 820 818 817 816 815
860 861 862 862 862 863 863 863 864 864 864 864 864 864 864 865 865 865 865 865 866 865 863 862 862 862 861 860 860 860 859 858 857 858 858 855 852 852 851 852 851 851 851 851 850 851 852 854 854 853 853 853 853 852 851 850 850 850 850 848 846 845 844 843 842 841 840 839 838 836 835 834 832 831 829 827 826 824 822 821 819 818 816 815 814
860 860 861 862 862 862 863 863 863 863 864 864 864 864 864 865 865 865 866 866 866 866 864 863 862 861 861 861 860 859 859 858 857 857 858 857 858 856 852 850 851 850 850 850 850 851 852 853 853 852 852 852 852 851 851 850 849 849 849 847 846 845 843 843 842 841 839 838 837 836 835 833 832 830 828 827 825 823 821 820 818 817 815 814 813
859 860 860 861 861 862 862 862 863 863 863 864 864 864 864 865 865 865 866 866 866 866 865 865 863 861 862 862 861 860 858 857 857 856 855 857 862 861 853 850 850 850 851 851 850 851 851 851 852 851 851 851 851 851 851 850 849 849 848 847 845 844 843 842 841 840 839 838 837 835 834 833 831 830 828 826 824 822 821 819 818 816 815 813 812
858 859 860 860 861 861 862 862 863 863 863 863 864 864 864 864 865 865 865 865 866 866 865 865 864 863 862 863 862 861 859 858 857 856 855 856 860 857 851 849 850 850 851 851 851 851 851 851 850 850 850 851 851 851 850 850 849 848 847 846 845 844 843 842 840 839 838 837 836 835 834 832 831 829 827 825 823 822 820 818 817 816 814 813 812
858 858 859 860 860 861 861 862 862 863 863 863 863 864 864 864 864 865 865 865 866 865 865 865 864 864 863 862 862 860 859 858 857 857 856 857 858 855 851 850 850 850 850 851 851 851 850 850 850 849 850 851 850 850 849 848 848 847 846 845 844 843 842 841 840 839 838 836 836 834 833 832 830 829 827 825 823 821 819 818 816 815 813 812 811
857 857 858 859 860 860 861 861 862 862 862 863 863 863 863 864 864 864 865 865 865 865 865 864 864 863 862 861 861 859 858 858 857 857 856 857 858 855 853 852 851 850 850 851 851 850 850 850 849 850 850 850 849 849 848 847 846 846 845 844 843 842 841 840 839 838 837 836 835 834 833 831 830 828 826 824 822 820 819 817 815 814 813 811 810
856 857 857 858 859 859 860 861 861 862 862 862 863 863 863 863 864 864 864 865 865 865 865 864 863 863 862 861 860 859 858 858 857 857 856 856 856 854 853 853 851 850 850 850 850 849 849 849 849 849 850 849 848 848 847 846 845 845 845 844 843 842 841 839 839 837 836 835 834 833 832 831 829 827 825 823 822 820 818 817 815 813 812 811 809
855 856 856 857 858 858 859 860 860 861 861 862 862 862 863 863 863 864 864 864 865 864 864 863 863 862 862 861 860 859 858 858 858 857 856 855 855 854 854 854 852 849 848 850 850 848 847 847 848 848 849 849 848 847 847 846 845 844 844 843 842 841 840 839 838 837 836 835 834 833 831 830 828 827 825 823 821 819 818 816 815 813 812 810 809
853 854 855 856 857 857 858 859 859 860 860 861 861 862 862 862 863 863 864 864 864 864 863 863 862 862 861 861 860 859 858 858 858 857 856 856 855 854 855 855 855 852 848 848 848 847 847 847 846 847 848 848 848 847 846 845 844 844 843 843 842 841 840 839 838 837 836 835 833 832 831 829 828 826 824 822 821 819 817 816 815 813 811 810 808
852 853 854 855 855 856 857 857 858 859 859 860 860 861 861 861 862 862 863 863 863 863 863 862 862 861 861 860 860 859 859 858 858 857 857 856 856 856 855 855 857 856 852 850 848 846 847 846 846 847 848 848 848 847 846 845 844 843 843 843 842 841 840 839 838 837 836 835 833 832 830 829 827 825 824 822 820 819 817 816 814 813 811 810 808
851 851 852 853 854 855 855 856 857 857 858 859 859 860 860 860 861 861 862 862 862 862 862 862 861 860 860 859 859 859 858 858 858 857 857 857 856 856 855 854 855 856 856 854 851 846 846 846 845 847 848 847 847 846 845 844 843 843 843 842 842 841 840 839 838 837 836 834 833 832 830 828 827 825 823 821 820 818 817 815 814 813 811 810 808
849 849 850 852 852 853 854 855 855 856 856 857 858 858 859 859 859 860 860 861 861 861 861 861 860 860 859 859 859 859 858 858 857 856 856 856 856 855 854 854 854 854 854 855 853 848 847 846 845 846 846 846 846 844 844 843 843 842 842 842 841 840 839 838 837 837 835 834 833 831 830 828 826 825 823 821 819 818 817 815 814 812 811 810 808
847 848 849 849 850 851 852 853 854 854 855 856 856 857 857 857 858 858 858 859 860 860 860 860 859 859 858 858 858 858 858 857 856 856 855 855 855 854 854 853 854 854 853 853 853 850 847 846 845 845 845 845 845 844 843 843 842 842 842 841 841 840 838 837 836 836 835 834 832 831 829 828 826 824 822 821 819 818 816 815 814 812 811 809 808
844 845 846 847 848 849 850 851 852 852 853 854 854 855 855 856 856 856 856 857 858 858 859 858 858 858 857 857 857 857 857 856 855 855 854 854 854 853 853 853 853 853 852 852 851 849 848 847 845 844 843 844 844 844 843 842 841 841 841 841 840 839 837 836 835 834 834 833 832 830 829 827 825 824 822 821 819 818 817 815 814 812 811 809 808
842 843 844 845 846 847 848 849 849 850 851 852 853 853 854 854 854 854 855 855 856 856 857 857 857 857 856 856 856 856 856 855 854 854 853 853 852 852 852 852 851 851 851 851 850 848 847 847 846 844 843 843 843 843 843 842 841 841 840 840 839 838 837 836 834 833 832 832 831 830 828 826 825 823 822 821 819 818 817 815 814 812 811 809 808
840 841 842 843 844 845 845 846 847 848 849 850 851 851 851 852 852 852 853 853 854 854 855 855 855 855 855 855 855 854 854 854 853 852 852 851 851 850 850 850 850 850 849 849 849 847 846 846 845 844 843 843 843 842 842 842 841 840 840 839 838 837 836 835 834 832 831 831 831 829 828 826 824 823 822 821 820 818 817 816 814 813 811 810 808
838 839 840 841 842 843 843 844 845 846 847 848 848 849 849 850 850 850 851 851 851 852 852 852 853 853 853 853 853 852 852 851 851 851 850 849 849 849 848 848 848 848 848 848 848 847 846 844 844 843 842 842 842 842 841 841 840 840 839 838 837 836 835 834 834 832 830 831 830 829 828 826 825 823 822 821 819 818 817 816 815 813 812 810 809
835 836 838 839 840 841 842 842 843 844 844 845 846 846 847 847 848 848 849 849 849 850 850 850 850 850 850 850 850 850 850 850 850 849 849 848 848 848 847 847 848 847 847 847 847 846 845 844 843 842 842 841 841 841 840 840 839 838 838 837 836 835 835 834 832 830 830 830 829 828 827 826 825 824 822 821 820 819 817 816 815 814 812 811 809
832 833 835 836 837 838 839 840 841 841 842 843 843 844 844 845 845 846 846 847 847 847 848 848 848 848 848 848 848 848 848 848 848 848 847 847 847 846 846 846 846 846 846 845 845 845 844 843 842 841 841 840 840 839 839 838 838 837 836 836 835 834 834 833 831 830 829 828 828 828 827 826 825 824 823 822 820 819 818 816 815 814 813 811 810
830 831 832 833 834 835 837 837 838 839 840 840 841 841 842 842 843 844 844 844 845 845 845 846 846 846 846 846 846 846 846 846 846 846 845 845 845 845 845 845 844 844 844 844 844 843 843 842 840 839 839 838 838 837 837 837 837 836 835 835 834 834 833 832 831 830 828 828 828 827 827 826 825 823 823 822 821 820 818 817 816 815 813 812 810
828 829 829 830 831 832 834 835 836 837 838 838 839 839 840 840 841 841 842 842 842 843 843 843 843 843 843 843 843 843 844 844 844 844 844 844 844 843 843 843 843 843 842 841 841 841 840 839 838 837 836 835 835 835 835 835 835 835 834 833 833 832 832 831 830 829 828 828 826 825 826 825 825 824 823 822 821 820 818 817 816 815 814 813 811
826 827 827 828 829 830 831 832 833 834 835 836 837 837 838 839 839 839 840 840 840 840 840 840 840 840 840 840 840 840 841 841 842 842 842 842 841 841 841 841 842 841 840 839 839 839 839 838 837 837 837 835 834 833 832 833 833 833 832 832 832 831 831 830 829 829 828 827 826 825 824 824 824 823 823 822 821 820 818 817 816 815 815 813 812
825 825 826 827 827 828 829 830 831 832 833 833 834 835 836 837 837 837 838 838 838 838 838 838 838 838 838 838 837 837 838 839 839 839 840 840 840 840 840 840 841 841 841 839 837 837 837 838 839 838 837 836 835 833 831 830 831 831 831 831 831 830 830 829 828 828 827 827 826 825 825 824 823 823 823 822 822 820 819 817 816 815 815 814 813
823 824 824 825 825 826 827 827 828 829 830 830 831 832 833 834 835 835 835 836 836 836 836 836 836 836 836 835 835 835 836 836 837 837 837 838 838 839 839 839 840 840 841 841 838 836 836 837 837 837 836 835 835 834 830 827 828 829 829 830 830 829 829 828 827 827 827 827 826 825 825 824 824 823 823 823 823 821 819 817 816 816 815 814 814
821 822 823 823 824 824 825 825 826 826 827 827 828 830 831 832 833 833 833 834 834 834 834 835 835 834 834 833 833 833 833 833 834 834 834 835 835 836 836 837 838 838 838 839 838 836 835 835 835 836 835 834 835 834 829 824 825 827 828 829 829 828 828 827 826 826 826 826 825 824 824 824 824 823 823 824 824 822 820 819 818 817 816 815 814
820 820 820 821 821 822 823 823 823 823 824 824 825 827 829 830 831 831 832 831 831 831 831 831 832 832 832 831 831 830 830 830 830 830 830 831 832 833 834 834 834 835 835 835 834 833 833 834 834 834 833 833 835 836 830 825 825 827 827 828 828 827 828 827 826 826 826 825 825 824 823 823 823 823 823 824 824 823 822 821 820 819 817 816 814
818 818 818 818 819 820 820 821 821 821 822 822 823 824 826 827 828 829 830 830 829 829 828 828 829 829 829 829 829 828 827 828 828 828 828 829 830 830 830 831 831 831 831 831 831 831 832 833 833 833 832 832 833 834 830 826 826 827 827 827 826 826 826 826 826 826 825 825 824 823 823 823 822 822 823 824 824 823 823 822 821 820 819 817 816
816 817 817 817 817 818 818 819 819 820 821 821 821 822 823 824 825 826 827 827 827 827 827 826 827 827 827 828 828 827 827 826 826 826 827 827 828 827 827 827 827 828 828 827 827 828 829 831 832 831 831 830 830 830 828 826 826 826 826 826 826 825 825 824 825 825 825 824 824 823 822 822 821 821 822 823 823 822 823 823 822 821 819 818 817
813 814 816 816 816 816 816 817 818 820 821 820 821 822 822 822 823 823 824 825 825 826 826 826 826 825 825 826 826 826 826 825 824 824 825 826 826 825 825 825 825 825 825 824 824 825 826 827 828 828 828 827 827 827 825 825 825 825 826 826 825 825 824 823 823 824 824 824 824 824 822 821 821 821 821 822 822 822 822 822 821 821 820 819 818
810 810 813 816 817 816 816 817 817 818 819 819 821 821 821 821 822 822 822 822 822 823 824 825 825 824 824 824 824 823 824 823 822 822 823 823 823 823 823 822 822 822 822 822 822 824 824 824 824 825 825 824 824 823 823 823 824 824 824 825 825 824 823 822 821 822 824 824 824 824 823 821 821 821 820 820 821 821 821 821 820 820 819 818 817
807 808 810 814 817 816 815 816 816 817 816 817 819 820 820 820 820 820 821 820 820 819 819 821 822 822 822 821 821 821 821 820 819 819 820 821 821 821 821 821 820 820 820 820 821 822 823 822 822 822 822 822 821 821 821 821 822 823 823 824 824 823 823 822 821 821 823 824 824 824 823 821 821 822 821 820 820 820 821 821 820 819 818 818 817
806 806 807 811 815 816 814 814 814 815 815 815 815 817 818 818 818 819 819 819 818 817 816 816 818 820 819 817 818 819 818 817 817 817 818 818 818 819 819 819 819 818 818 818 819 819 819 820 820 820 820 820 820 819 820 820 821 822 822 823 823 823 822 822 821 820 822 824 824 823 822 822 822 822 822 820 819 818 820 821 820 819 818 818 817
805 806 806 808 812 814 814 813 812 813 814 814 814 815 815 816 817 817 818 818 818 816 814 814 814 815 815 814 814 815 814 814 815 815 815 815 816 816 816 816 816 815 815 816 816 817 817 818 819 819 819 819 819 819 818 819 819 821 822 822 822 822 822 822 822 821 821 823 825 824 823 823 822 823 823 821 819 817 818 820 820 820 820 819 818
Wind_Speed
10 9 8 7 7 7 7 7 7 7 7 7 6 5 5 5 4 4 4 4 3 3 3 2 2 4 4 4 4 4 4 4 4 3 3 3 2 0 2 2 2 2 2 2 2 1 1 2 3 2 2 3 3 4 4 4 4 4 4 5 5 6 7 8 9 9 9 8 8 8 8 9 8 8 9 10 10 10 10 10 10 11 11 11 11
9 8 7 7 7 7 7 7 7 6 6 6 5 5 5 5 4 4 4 4 3 4 3 3 4 5 4 4 5 5 5 5 4 4 4 4 3 1 2 2 2 2 3 3 3 3 2 1 1 1 1 1 2 2 2 3 3 4 4 4 5 5 6 7 9 10 9 9 9 9 9 9 9 9 9 10 10 11 11 11 12 12 13 13 13
9 8 8 8 8 8 7 7 6 6 5 5 5 4 4 4 4 4 4 4 3 3 3 3 4 5 5 5 5 5 5 4 5 5 4 4 3 2 1 2 3 3 4 4 4 3 3 3 2 2 1 0 1 1 2 3 3 4 4 5 5 5 6 8 10 11 11 11 11 10 10 11 11 11 11 11 11 11 12 12 13 13 14 15 15
8 8 8 8 8 8 7 6 6 5 4 4 4 4 4 4 4 3 4 3 3 3 2 3 5 5 5 6 5 6 5 4 5 5 5 4 4 3 2 2 3 4 5 4 4 3 3 3 3 2 1 1 0 1 2 3 3 4 5 5 5 5 6 7 9 10 11 12 12 12 11 12 13 13 13 13 13 13 13 14 14 14 15 15 16
8 8 8 8 8 7 7 5 5 4 4 4 3 4 3 4 3 3 3 3 3 4 2 4 6 4 4 6 6 5 5 5 5 5 5 5 4 4 3 2 2 3 4 4 4 3 3 3 3 2 1 1 1 1 2 3 4 5 5 6 6 6 6 6 8 9 10 11 12 12 12 13 13 14 14 15 15 15 15 15 15 16 16 16 17
9 8 8 8 8 7 6 5 4 3 3 3 3 3 3 3 3 3 3 3 3 4 3 4 5 4 5 5 6 5 4 5 5 5 5 5 5 4 3 3 2 2 2 3 2 2 3 3 3 2 2 1 1 2 3 3 4 5 6 7 8 8 7 8 10 11 12 13 13 13 13 13 13 14 15 15 16 16 16 16 16 16 16 17 17
9 8 7 7 7 6 5 4 4 3 3 3 2 3 3 3 3 3 4 4 3 3 4 4 3 5 5 4 6 5 4 5 4 4 5 4 4 4 3 3 3 2 2 1 1 1 2 3 3 2 2 1 1 1 3 4 5 6 7 9 10 10 10 10 12 13 14 13 13 13 13 13 13 13 14 14 15 15 16 16 16 16 16 17 17
10 9 7 6 6 5 5 4 3 3 3 2 2 2 2 2 3 4 5 5 3 3 4 3 3 4 4 5 6 4 4 5 3 4 5 3 3 3 3 3 2 2 2 2 2 2 2 3 3 2 1 1 0 2 3 5 6 8 9 10 10 12 12 12 12 13 13 12 11 10 10 11 11 12 13 13 14 14 15 14 15 15 15 16 16
9 8 6 5 4 4 4 4 3 2 2 2 2 2 2 2 4 5 5 5 3 3 3 2 2 3 4 5 6 4 4 4 3 4 4 2 2 3 3 3 3 2 2 3 3 2 2 2 2 2 2 2 3 4 6 7 9 10 10 11 11 12 13 14 14 12 10 9 8 8 9 9 10 11 12 12 13 13 13 12 13 13 13 14 15
8 7 4 3 3 3 3 3 2 2 2 1 2 2 2 2 3 4 5 5 4 4 3 2 1 2 3 5 5 3 4 4 3 3 2 2 2 2 3 3 3 3 2 2 3 3 3 3 3 3 3 5 6 7 9 10 10 11 11 11 11 12 13 15 14 11 9 8 8 8 9 9 9 10 11 11 11 11 12 12 12 12 12 13 14
7 6 3 3 3 2 3 2 2 2 1 1 2 2 2 2 3 4 5 4 4 4 3 2 1 1 2 3 4 3 2 3 2 2 1 2 2 2 3 4 3 3 3 3 3 3 4 4 5 5 6 8 9 9 10 11 11 11 11 11 11 12 14 15 13 10 9 10 10 9 8 9 9 9 10 10 10 11 11 12 12 12 11 12 12
6 5 3 2 2 2 2 2 1 1 1 1 2 2 2 3 3 4 4 4 3 3 3 3 2 1 1 0 3 3 3 2 2 3 3 2 3 2 3 4 3 3 3 3 3 4 4 5 6 6 6 9 10 10 10 10 11 11 11 11 11 12 14 15 13 9 8 10 10 9 8 9 9 9 10 10 11 11 11 12 12 12 12 11 11
6 5 3 2 2 2 2 2 1 1 2 1 2 2 2 2 2 3 3 3 3 3 4 3 2 1 1 2 3 4 4 3 3 4 4 4 4 4 4 4 4 4 4 4 4 5 5 5 6 6 7 8 9 10 11 11 12 11 11 11 11 12 14 14 12 8 8 10 10 9 9 9 10 10 11 11 12 12 12 12 12 12 12 11 10
6 5 4 3 3 2 2 2 1 1 1 1 1 1 1 2 2 2 1 2 3 4 5 4 2 1 0 2 4 5 4 4 4 4 4 3 4 5 5 6 6 5 4 4 5 5 5 5 5 6 7 8 8 9 11 11 12 13 13 12 11 11 12 12 11 9 9 10 10 10 9 9 11 12 13 13 14 14 13 13 12 12 11 10 10
6 5 4 4 2 2 2 2 2 1 1 1 1 1 1 1 1 2 2 1 1 3 5 5 4 2 1 2 2 4 3 4 4 3 2 2 2 3 4 5 5 4 4 5 6 5 5 5 5 7 9 9 9 9 10 10 12 13 11 9 8 9 10 10 10 9 8 10 11 10 10 10 12 13 14 15 15 15 15 14 13 12 11 10 9
6 6 4 3 3 2 2 2 1 1 0 0 0 1 1 0 1 2 3 3 2 3 4 5 5 3 2 1 1 2 2 3 3 2 2 2 1 2 2 4 5 4 5 6 5 4 5 6 6 8 10 9 9 9 8 9 11 9 7 6 6 8 9 9 9 8 8 10 12 11 10 10 11 12 13 14 14 14 14 13 12 12 11 10 8
6 5 4 3 3 3 2 2 1 1 1 1 1 1 1 1 1 2 2 3 4 3 3 3 4 4 4 2 1 1 0 2 2 1 3 3 1 1 1 4 4 4 5 6 4 5 6 6 6 8 9 8 8 7 8 10 11 9 7 7 8 9 9 9 9 8 8 10 11 9 9 9 11 12 13 13 14 13 13 12 11 12 11 10 9
6 5 4 3 3 3 2 1 1 1 1 1 1 2 2 2 1 1 2 3 4 4 2 2 3 2 2 2 1 1 2 3 3 1 3 4 2 1 0 3 4 3 5 6 6 6 5 6 7 6 5 5 7 7 7 7 8 9 8 8 9 10 9 9 8 7 9 10 9 8 9 11 12 13 14 15 15 15 14 12 11 11 11 10 10
6 5 4 3 3 3 2 1 1 2 1 1 2 2 2 2 1 1 2 3 3 4 3 2 2 1 1 1 1 1 2 3 3 2 2 3 3 4 1 1 3 3 4 5 4 4 3 5 9 6 2 4 5 4 5 6 6 7 9 10 10 10 10 8 7 8 9 9 8 7 9 12 14 15 16 16 16 16 15 13 12 11 11 10 10
7 5 5 4 3 3 2 2 2 2 2 3 3 2 1 1 1 1 2 1 1 2 4 4 3 1 1 3 2 1 2 2 3 4 4 2 3 6 4 1 3 2 3 5 4 3 2 2 6 6 2 2 4 4 5 6 7 7 8 10 10 9 9 8 8 9 9 8 7 8 10 13 15 16 17 18 17 17 15 14 13 12 11 10 10
8 6 6 5 4 3 3 3 3 3 3 3 3 2 1 1 0 0 0 1 1 1 2 3 5 3 1 3 4 4 4 4 3 4 5 2 2 5 6 3 3 3 3 5 5 5 4 3 4 5 2 3 3 4 4 5 6 6 7 9 10 9 9 9 9 9 9 8 7 8 11 13 15 16 18 19 19 18 16 15 13 12 12 10 10
9 8 8 7 6 5 4 4 4 4 4 3 3 3 3 2 2 1 1 1 1 2 3 3 4 5 3 3 4 5 5 5 5 5 5 3 2 6 7 4 4 4 4 5 6 6 6 6 6 5 4 4 4 4 4 5 6 8 9 10 10 10 10 9 9 8 8 7 7 9 11 13 15 17 19 20 20 19 17 16 14 13 12 11 10
8 8 9 9 8 7 6 5 4 4 4 4 4 4 4 4 3 2 2 2 3 3 4 5 5 5 6 4 5 6 5 4 6 5 5 5 5 6 7 6 6 6 5 5 7 7 6 7 7 5 4 5 5 5 6 6 6 8 9 9 10 10 9 9 8 7 6 7 7 9 10 12 15 17 19 21 20 19 18 17 15 14 13 12 11
7 8 9 9 9 8 7 6 5 5 5 5 4 4 4 3 3 3 3 3 4 4 5 6 6 6 7 6 7 7 6 6 6 5 4 4 5 6 7 7 7 7 6 5 6 7 6 6 5 4 4 5 4 5 7 7 5 7 8 8 9 9 8 8 8 6 6 6 7 8 10 13 15 18 20 20 20 19 19 19 17 15 13 13 12
8 9 9 9 9 9 8 8 7 6 6 5 5 5 4 4 4 4 4 4 4 5 5 6 7 7 8 7 8 8 7 6 7 7 6 5 6 7 7 7 8 8 6 5 7 7 5 5 4 3 4 5 5 5 7 6 4 6 7 5 8 9 7 7 7 5 5 5 7 9 11 13 15 17 19 20 19 19 19 19 19 17 15 13 12
9 9 9 9 9 9 9 9 8 8 7 6 6 6 6 5 5 5 5 4 4 5 6 7 7 7 8 8 9 9 8 7 7 8 8 7 7 7 6 7 9 9 7 4 6 7 5 4 4 3 3 5 6 5 6 6 4 7 6 3 6 8 5 5 4 4 5 5 7 10 12 14 15 17 18 18 18 18 18 19 19 18 17 14 12
9 8 8 9 9 9 9 9 9 9 8 7 7 7 7 6 6 6 6 5 5 6 7 7 8 7 8 8 9 9 9 8 8 8 8 8 8 7 6 6 6 8 7 5 6 6 5 5 5 3 3 5 5 4 5 5 5 6 5 3 4 5 4 4 4 4 5 7 9 10 12 14 15 16 17 17 17 17 17 17 18 19 18 16 13
9 9 8 9 9 9 10 10 10 10 9 8 8 7 7 7 7 6 7 7 6 7 7 8 8 8 8 9 9 10 9 9 9 9 8 7 8 7 6 6 5 5 6 5 6 5 4 6 5 2 3 5 5 5 5 5 5 5 4 2 2 3 4 4 5 6 6 8 9 11 13 14 15 16 16 16 15 15 16 16 17 18 18 17 14
10 9 9 9 9 10 10 10 10 10 10 9 9 8 8 8 8 7 8 8 7 7 8 8 9 9 9 9 9 9 9 9 10 10 8 7 8 8 7 7 5 4 5 4 5 6 6 7 5 1 2 5 5 5 4 4 5 3 2 3 2 2 4 5 6 7 7 8 10 11 13 14 14 15 15 15 14 14 15 15 16 17 17 17 15
11 10 9 9 10 10 9 9 10 10 10 10 9 9 9 9 9 8 8 8 7 8 8 9 9 9 10 10 10 10 9 10 10 10 8 7 8 9 8 7 6 6 6 5 5 7 8 8 6 3 2 4 5 5 4 3 4 3 2 3 3 3 6 6 7 8 7 8 9 10 12 13 13 14 14 14 14 14 14 15 16 16 16 16 15
12 11 10 10 10 10 10 10 10 11 11 11 10 10 10 10 10 10 9 8 8 8 9 9 10 10 10 11 10 10 10 10 10 11 10 9 9 9 9 8 7 7 7 7 5 7 9 9 8 6 4 4 4 6 5 3 4 5 4 5 4 6 8 6 5 9 8 8 9 10 12 12 13 13 14 14 14 14 14 15 15 15 15 15 15
13 13 12 12 12 11 11 11 11 12 12 11 11 11 11 11 11 10 9 8 8 9 9 10 10 10 10 11 11 11 10 10 10 11 10 10 10 10 9 9 9 9 9 8 7 8 10 10 9 8 6 5 4 4 6 5 5 5 5 6 6 7 8 6 6 8 9 8 9 10 11 12 12 13 13 14 14 14 14 15 15 14 14 14 14
14 13 13 13 13 12 12 11 12 12 12 11 11 11 11 11 11 11 10 9 9 10 10 10 11 10 10 10 11 11 11 11 11 11 11 11 10 11 10 10 10 10 9 9 9 10 10 8 8 9 7 6 6 4 5 7 7 6 6 6 6 7 8 7 6 6 7 10 10 9 11 12 12 13 13 13 14 14 15 15 14 14 13 13 13
14 14 14 14 14 14 13 13 12 12 12 11 11 11 11 11 12 12 12 11 11 11 11 11 11 11 11 11 11 11 12 12 12 12 12 12 11 11 11 10 10 10 9 9 10 10 9 7 8 9 7 7 7 5 6 8 7 7 7 7 7 7 7 8 8 5 5 11 10 9 12 12 11 12 12 13 13 14 14 14 14 14 13 13 13
15 15 14 14 14 14 15 14 13 13 13 12 12 12 12 12 12 12 12 12 12 12 12 12 12 12 12 12 12 12 12 11 11 12 12 12 12 11 11 10 10 10 8 8 8 9 9 8 7 9 8 6 7 7 7 7 7 7 7 8 8 8 7 9 9 5 6 11 10 10 13 12 11 11 11 12 13 13 14 14 14 14 13 13 12
15 15 15 15 14 14 15 15 15 15 14 14 14 13 13 13 14 13 13 13 13 13 13 12 12 12 12 12 12 12 12 11 11 11 11 11 11 11 11 10 10 10 9 8 8 8 9 9 8 9 8 7 8 8 7 7 7 7 7 8 8 8 8 10 11 8 8 11 10 10 12 12 10 11 10 10 11 12 14 14 14 14 14 13 13
16 16 15 15 15 15 15 16 16 16 15 15 15 15 15 14 14 14 14 13 14 14 14 13 12 12 13 13 13 12 12 12 12 12 11 11 11 11 11 10 10 10 9 9 9 9 9 10 10 9 9 9 9 8 7 7 7 7 7 7 7 7 8 9 11 10 9 10 8 8 10 10 10 10 9 9 11 13 13 14 15 15 15 14 14
18 17 16 16 16 16 17 16 16 16 16 15 15 15 15 15 15 15 14 14 14 14 14 14 14 13 13 13 13 13 13 13 13 12 11 10 11 11 11 10 10 10 9 10 10 10 10 11 11 11 11 10 9 8 6 6 7 8 7 7 7 6 7 9 11 10 9 8 8 7 8 7 7 9 8 8 11 13 13 14 15 15 16 15 15
18 18 17 17 16 16 17 17 17 16 16 15 15 15 15 15 15 15 15 14 14 15 15 15 15 14 14 14 14 14 13 13 13 12 12 11 11 11 11 10 10 11 12 12 11 11 12 13 13 12 11 10 9 9 7 5 6 7 6 6 7 6 6 7 9 9 8 9 9 7 7 6 4 4 5 8 11 12 13 14 16 16 16 16 16
19 18 18 17 17 16 17 17 17 16 16 15 15 15 15 15 15 15 15 15 15 15 15 15 15 15 15 15 15 15 14 14 13 13 12 11 10 11 11 11 11 11 12 12 11 11 12 13 12 11 11 11 10 9 7 7 7 6 6 6 7 7 7 6 7 7 7 9 9 7 7 6 3 2 3 8 11 12 12 14 16 16 16 16 16
18 18 18 17 17 16 16 16 16 16 16 16 15 15 15 15 15 15 15 15 15 15 15 15 15 16 16 15 15 15 14 13 13 14 14 13 13 13 12 12 10 9 12 13 11 8 9 11 11 9 9 13 15 13 9 7 7 6 6 7 8 8 8 7 7 5 5 8 9 8 7 5 4 3 3 6 9 10 12 14 15 16 16 15 15
17 17 18 17 17 17 16 16 16 16 16 16 15 16 17 15 14 14 14 14 14 14 15 15 15 16 16 16 16 15 15 15 15 18 18 17 16 16 15 14 13 11 13 14 11 8 8 10 11 9 7 10 19 20 12 7 7 7 6 7 8 8 8 8 6 3 4 7 9 8 7 6 5 4 3 5 8 9 11 13 14 13 13 13 14
17 17 17 18 18 17 17 16 17 17 16 15 16 18 18 16 15 14 14 14 14 14 15 16 16 17 17 17 16 16 16 17 18 20 20 19 18 18 18 18 17 16 15 14 12 10 10 10 11 11 9 8 17 24 16 7 7 7 5 7 7 7 7 7 7 4 4 6 7 7 6 4 4 4 3 6 7 9 10 11 10 11 11 12 13
18 18 18 18 18 18 17 17 17 17 16 16 18 19 18 16 15 15 15 16 16 15 15 16 17 17 17 17 17 16 16 16 16 17 19 20 20 20 21 20 19 18 18 17 16 14 12 12 12 12 11 8 13 22 18 7 5 6 6 7 8 7 6 7 8 5 4 6 7 7 7 5 3 3 4 7 7 9 9 8 8 10 11 11 12
18 17 17 18 17 17 17 17 17 17 17 16 16 16 16 16 15 14 14 15 16 17 18 19 18 17 16 17 17 17 16 15 13 14 16 17 19 20 21 21 21 20 20 19 20 18 16 15 13 13 13 10 13 19 13 5 5 7 7 9 8 8 8 7 6 4 3 6 7 6 7 6 4 3 5 7 6 7 7 7 8 9 10 11 12
18 17 16 15 15 14 13 14 14 14 13 12 13 14 15 15 14 13 13 13 15 17 19 19 19 17 16 16 16 17 17 15 13 12 13 14 16 17 18 19 18 18 19 19 19 19 19 18 17 18 18 14 15 15 9 5 7 7 7 9 9 9 9 6 3 1 2 5 6 6 7 5 5 5 3 5 6 6 6 6 7 8 10 10 11
17 15 14 13 13 13 13 12 12 13 11 8 8 12 14 14 13 12 12 12 14 16 18 18 18 17 18 19 19 19 18 16 14 14 15 14 13 14 15 15 16 16 17 18 17 16 18 20 20 20 20 16 14 12 7 5 6 6 7 8 8 8 8 5 1 2 2 5 6 6 6 5 5 6 2 3 5 6 4 5 6 7 8 9 10
16 13 11 11 12 14 14 12 12 12 11 9 10 10 12 13 15 14 12 10 12 14 16 18 18 17 19 22 22 22 20 17 15 17 19 17 14 14 15 15 16 16 15 17 19 19 18 18 17 17 18 16 14 12 10 8 7 6 6 7 7 6 6 5 3 2 3 3 7 6 6 5 5 6 4 2 2 3 3 1 4 6 7 8 10
11 9 7 7 10 11 12 11 9 9 11 13 14 14 13 12 11 12 11 11 12 13 15 17 19 20 22 21 20 21 20 17 16 17 19 19 17 16 15 16 16 16 15 15 17 19 21 20 19 19 18 17 15 13 11 9 8 6 5 6 7 5 4 5 5 1 5 5 7 6 5 5 5 6 6 4 3 3 3 3 1 6 8 9 9
9 8 8 7 8 8 8 9 8 7 8 10 11 11 10 9 7 6 7 8 10 12 14 16 19 21 20 19 20 21 19 16 15 16 18 19 17 15 15 16 17 17 17 14 13 15 19 22 21 19 17 15 12 11 10 8 7 5 5 6 5 4 5 5 5 2 4 7 8 6 4 5 4 5 7 7 5 4 4 3 0 4 6 7 8
6 6 7 7 7 7 6 7 8 7 8 9 10 10 10 10 9 6 6 7 9 11 13 15 17 19 17 16 18 19 17 16 16 16 18 20 18 16 15 17 18 19 18 17 16 15 15 16 16 14 13 11 7 6 7 6 6 5 2 3 3 4 5 3 4 4 1 6 8 6 4 4 4 4 6 8 6 3 3 1 2 3 3 4 6
Wind_Direction
144 143 141 137 132 132 132 133 133 131 129 125 120 115 110 101 91 88 76 56 57 54 33 46 86 83 75 76 85 88 85 83 86 94 101 111 125 358 48 92 103 95 98 106 119 143 198 245 261 255 262 274 273 273 271 274 278 280 285 289 296 303 309 315 321 328 332 332 332 332 331 327 324 319 312 313 316 318 319 318 316 312 309 309 310
140 137 136 133 130 132 132 135 134 130 130 124 117 111 106 99 88 79 61 37 43 44 30 48 73 82 79 74 80 86 85 89 96 102 109 108 117 115 25 71 95 90 91 85 80 82 88 112 154 170 219 270 283 291 297 306 311 314 315 314 317 319 322 327 327 327 327 326 326 324 324 321 318 316 313 310 308 308 308 308 307 305 304 304 305
137 133 135 133 133 136 136 139 135 127 128 121 111 103 100 94 79 64 46 33 37 43 42 61 74 85 86 80 81 85 85 92 101 101 105 102 107 118 31 45 78 87 91 89 88 89 98 116 131 138 136 102 353 346 341 338 337 332 328 325 323 325 332 335 329 323 319 315 314 313 313 314 313 311 311 309 306 304 301 301 301 300 300 300 301
135 134 137 137 139 142 139 138 132 128 122 112 106 100 104 96 76 54 37 29 48 56 55 79 81 83 90 89 85 85 83 82 88 91 98 100 102 116 105 47 64 80 89 93 98 109 123 137 144 147 143 126 37 359 352 345 342 336 331 328 324 330 344 343 330 321 315 309 307 309 310 310 310 309 308 308 307 305 302 301 299 299 299 299 300
137 137 140 142 142 142 139 133 124 123 117 108 107 105 108 100 84 63 42 27 61 65 58 85 85 81 87 92 89 87 89 86 87 91 97 103 103 105 115 112 78 71 80 95 110 126 142 154 161 158 150 125 66 13 4 355 350 344 338 334 330 332 341 341 329 319 315 311 307 308 311 312 312 312 310 309 307 305 303 301 299 299 298 299 299
138 139 143 143 144 142 137 130 119 119 117 111 115 113 106 97 83 64 45 30 61 64 57 76 84 82 77 87 93 87 90 87 85 91 92 95 100 102 110 120 124 103 81 86 108 145 160 167 171 163 148 120 60 22 9 358 348 343 336 332 329 327 326 322 316 311 311 311 308 307 309 311 313 314 312 310 307 304 302 300 297 296 296 296 296
140 139 143 147 148 142 132 121 114 115 115 110 116 114 106 94 67 44 33 25 52 75 73 71 74 85 86 89 91 88 92 88 87 97 98 95 98 103 110 116 129 147 149 124 132 173 173 174 175 164 145 117 65 16 351 339 331 328 326 325 324 323 324 320 313 311 312 311 308 306 306 310 313 315 314 312 308 305 301 298 296 294 294 294 293
143 141 147 152 147 139 128 112 104 107 112 113 124 119 109 87 50 29 25 17 29 77 83 83 82 95 111 111 99 97 95 91 93 93 88 94 106 112 117 128 134 145 161 164 197 212 186 174 170 170 160 144 308 313 313 312 313 314 316 318 320 322 326 327 323 320 318 314 314 314 314 316 318 317 316 313 309 304 301 299 299 298 297 296 295
148 145 148 152 143 132 120 109 99 96 100 118 137 125 104 74 45 24 18 7 7 51 71 90 111 118 124 114 105 101 93 86 84 86 86 95 117 130 133 142 150 155 169 167 180 209 223 204 188 203 215 244 277 291 297 301 304 307 310 314 319 325 330 335 335 331 327 325 328 329 326 323 320 315 312 310 308 306 304 303 304 303 303 301 300
150 147 147 147 137 114 100 100 95 90 104 134 138 118 85 50 36 19 7 1 4 25 40 29 65 131 120 113 112 106 97 91 82 91 110 118 115 140 148 154 169 165 174 185 187 203 234 260 266 264 271 279 284 290 295 299 301 304 308 314 321 328 334 339 340 342 348 349 342 332 325 321 318 314 313 312 312 312 310 308 306 305 304 304 303
152 151 149 140 131 107 93 96 100 95 112 135 137 116 70 27 20 11 358 355 4 14 23 3 322 75 76 104 124 124 112 111 128 136 139 131 130 164 172 168 182 182 188 205 214 222 229 249 265 270 281 289 294 297 297 301 302 304 310 315 322 328 334 340 342 348 354 350 340 329 321 319 320 318 315 313 312 312 311 310 308 305 305 305 305
155 158 156 143 126 114 111 113 111 98 96 111 120 101 54 14 10 4 355 358 12 21 22 354 313 36 36 130 151 160 156 144 172 171 172 170 160 191 198 179 179 198 215 217 225 241 243 250 262 268 275 286 300 305 300 300 301 303 308 312 318 324 331 337 341 348 349 344 339 328 319 317 319 317 314 311 309 310 310 310 310 308 307 306 307
160 161 159 155 142 135 138 139 130 105 88 75 69 62 28 10 360 342 350 8 10 21 22 351 274 181 186 204 171 177 173 168 201 202 189 181 180 193 205 203 193 197 213 221 233 240 245 254 266 274 274 278 295 303 302 305 305 303 305 307 312 318 327 337 343 345 342 342 339 330 320 316 315 311 308 306 305 307 308 310 310 309 308 308 309
165 164 165 169 166 165 161 154 139 102 90 83 63 51 24 14 348 333 350 9 13 22 15 338 278 115 35 232 173 169 175 186 201 204 196 185 189 192 202 214 205 196 203 212 228 236 242 249 259 272 275 276 284 290 295 301 303 303 304 304 306 314 328 341 345 342 342 342 339 330 320 312 308 305 303 301 300 299 300 303 305 307 309 310 313
171 171 173 175 177 174 164 156 139 98 101 106 73 84 57 349 343 12 345 307 71 49 18 352 346 29 222 237 185 171 176 201 199 186 194 183 196 204 203 219 210 198 211 217 226 235 247 257 264 271 275 279 284 287 293 299 303 308 312 307 309 322 334 342 340 339 342 341 336 326 315 311 309 309 309 309 306 302 299 298 298 302 306 309 317
178 179 179 174 173 171 162 155 139 115 130 121 157 167 146 209 69 41 349 325 35 58 36 14 7 2 293 264 228 206 184 205 194 179 217 193 197 235 211 231 219 199 225 236 237 242 254 266 273 279 283 288 292 297 310 319 322 332 348 344 338 340 337 337 337 338 341 339 335 328 325 328 329 329 328 324 321 315 310 303 296 296 300 307 317
185 184 182 167 165 165 164 164 149 153 172 196 203 185 174 162 108 63 24 3 3 18 39 38 32 22 359 360 282 238 357 290 242 206 262 261 266 300 249 250 236 209 242 254 259 259 262 274 279 282 291 303 313 328 349 348 344 352 5 360 350 342 333 335 339 338 339 340 339 341 349 352 348 344 340 334 330 327 323 314 299 292 296 309 318
195 193 182 166 167 167 175 191 170 171 184 223 221 202 192 157 108 63 50 30 5 355 14 54 50 31 15 58 61 324 344 314 290 248 265 275 285 282 209 267 254 225 246 253 256 258 275 300 292 282 301 336 350 358 359 351 351 354 351 349 344 337 332 335 340 342 340 340 343 350 357 356 350 346 343 339 336 334 331 322 308 297 298 310 318
202 198 190 176 176 183 200 221 210 197 195 224 228 212 184 134 92 54 41 36 24 352 339 16 28 323 320 90 126 322 335 316 304 307 253 249 284 283 251 270 267 245 257 264 265 276 325 321 300 300 358 15 1 351 330 328 341 344 337 339 342 339 338 340 344 345 340 338 340 344 351 353 352 350 347 346 344 341 337 328 318 308 304 309 315
209 205 202 198 199 208 222 232 230 218 214 226 229 219 184 116 84 64 48 23 30 356 335 339 322 317 345 308 292 290 290 293 313 319 292 293 354 309 292 299 286 303 323 305 309 315 319 308 297 305 345 360 344 344 336 331 332 326 317 324 337 341 342 344 343 344 339 334 334 339 350 355 353 352 349 348 346 343 340 335 329 319 309 307 312
214 214 213 211 214 219 230 234 234 230 228 233 230 219 216 170 160 327 54 329 335 314 311 309 303 316 342 308 309 300 287 288 284 283 287 324 33 289 281 296 290 308 323 310 320 317 310 316 297 293 319 357 350 344 335 322 317 313 304 312 329 337 340 342 341 342 337 328 330 340 348 352 349 348 347 346 343 339 336 336 336 330 319 310 309
212 215 218 218 219 225 233 234 233 233 233 240 240 226 221 217 221 237 250 276 270 264 270 277 292 305 304 295 294 289 293 299 288 289 304 315 288 271 285 312 301 298 304 308 316 310 310 316 305 306 333 338 335 327 318 310 306 310 310 312 323 330 333 338 337 339 335 325 330 338 343 348 346 345 345 343 342 340 337 334 333 334 329 320 311
210 212 216 218 221 227 233 235 236 236 235 240 241 232 223 220 219 224 239 258 259 262 267 267 270 279 281 272 266 273 282 287 290 299 304 303 302 298 307 315 307 299 298 306 305 299 305 308 305 322 334 319 320 317 309 300 291 308 319 319 324 329 328 330 331 330 327 321 328 336 341 345 344 344 345 344 345 347 347 344 339 334 330 325 315
212 212 215 216 220 225 232 236 237 237 239 241 242 244 242 236 233 237 235 238 251 258 259 263 264 265 269 268 267 275 279 280 283 284 285 299 303 297 300 305 302 297 298 307 304 298 305 306 304 321 327 316 316 314 309 299 290 319 332 321 320 329 325 324 328 326 322 323 332 339 342 345 346 346 346 346 348 351 352 352 350 344 336 328 318
214 215 217 217 217 222 228 232 236 238 240 244 245 248 251 250 248 245 244 240 247 254 254 260 265 266 272 275 275 277 279 281 284 284 286 286 282 285 296 302 298 296 299 307 308 301 293 293 296 302 316 319 316 318 316 310 313 335 340 322 314 321 319 320 329 331 330 334 337 341 343 347 348 348 347 346 348 351 352 352 352 352 349 339 326
216 216 218 220 219 222 226 229 234 236 236 239 245 245 244 249 252 249 248 248 250 256 257 260 262 262 268 273 276 277 280 284 281 281 284 281 282 293 306 303 296 296 294 289 294 294 289 291 286 283 309 317 314 321 320 319 339 342 344 326 306 315 325 335 346 345 341 340 338 340 344 347 348 347 347 347 348 350 351 352 352 354 355 350 337
216 218 218 222 222 221 223 226 229 230 232 235 239 242 239 241 247 249 252 252 252 256 258 261 262 260 263 269 274 275 277 279 277 279 286 289 293 301 305 300 296 298 299 292 286 284 292 297 285 282 318 317 310 315 318 321 335 337 341 345 320 333 5 14 6 353 340 336 336 338 342 345 346 347 348 348 347 347 348 351 353 355 357 355 346
217 219 220 221 222 222 223 225 225 225 227 230 236 239 236 237 242 244 249 252 251 253 258 261 263 263 263 263 268 272 273 276 278 281 285 287 291 292 288 284 289 299 300 299 296 289 289 291 285 283 313 316 309 304 311 319 328 337 345 355 360 358 4 11 5 347 332 329 332 336 339 342 344 345 347 347 346 344 343 346 350 353 356 357 351
220 221 219 218 218 220 224 225 222 221 224 227 232 235 234 239 242 241 246 252 251 252 257 261 263 265 266 264 266 271 274 273 274 277 277 275 277 275 270 270 275 284 291 298 297 297 296 291 297 326 298 301 293 282 293 311 321 336 337 332 351 343 335 350 356 342 326 325 329 333 338 341 342 343 344 343 342 340 339 341 345 349 353 356 353
220 221 218 215 215 217 223 226 223 221 224 227 230 231 232 237 239 240 243 246 249 251 253 258 261 264 267 269 271 273 275 274 272 273 268 260 264 267 266 267 264 266 282 293 289 297 302 294 296 298 267 282 282 283 296 298 308 317 302 309 317 317 321 332 350 347 329 321 327 332 337 339 340 340 339 336 335 335 336 339 343 345 348 352 354
216 217 218 216 216 216 219 223 223 223 223 227 230 228 230 235 238 240 238 234 240 248 251 254 257 259 261 265 269 270 274 275 275 274 269 260 261 265 264 264 263 261 272 281 280 291 296 295 301 299 280 286 288 297 305 293 301 311 296 289 291 308 309 297 325 339 329 320 324 331 336 338 337 336 333 330 330 332 337 340 342 344 344 347 353
215 214 217 218 218 218 220 222 221 223 224 226 228 227 229 232 236 242 241 234 236 243 249 252 255 256 256 259 262 265 269 272 273 272 267 260 257 261 264 262 261 260 260 264 268 277 282 290 302 299 294 297 280 285 305 303 309 313 295 278 283 307 309 284 292 317 323 325 325 329 337 336 335 333 329 329 331 336 341 343 344 345 344 346 351
217 215 216 216 216 217 221 223 222 223 224 226 228 227 228 230 233 240 244 241 242 247 250 251 253 255 255 256 260 263 265 267 269 269 267 263 256 256 260 259 260 261 258 259 266 276 281 288 297 294 297 301 284 280 301 300 306 312 301 288 285 298 310 311 301 291 313 332 329 331 338 336 334 333 331 333 337 341 345 346 348 349 347 347 351
216 218 218 216 216 217 219 221 221 223 223 225 230 231 232 232 234 240 242 241 243 248 251 250 251 253 252 253 257 259 260 260 262 265 265 265 262 259 259 259 262 265 261 259 266 275 280 281 285 283 281 284 285 292 301 300 304 305 301 300 297 298 308 320 315 284 311 335 335 337 341 338 336 337 335 337 341 345 348 350 352 354 353 351 352
216 217 219 219 217 217 219 219 218 221 222 224 229 233 233 235 237 242 246 246 247 249 251 250 250 250 249 251 254 256 258 258 259 264 266 266 265 264 264 264 267 270 268 260 259 270 278 279 280 280 277 275 283 290 295 298 299 295 295 300 302 309 314 315 315 303 315 331 337 342 345 344 341 339 338 339 344 349 352 356 358 0 0 358 356
219 216 216 219 219 216 218 220 218 220 223 225 228 231 232 233 236 241 245 248 248 249 251 252 251 250 250 252 253 254 257 258 259 262 265 266 264 261 262 262 264 269 269 258 251 261 273 277 274 274 277 278 278 283 289 293 294 286 288 297 300 309 314 312 314 314 316 327 336 344 347 347 345 342 341 344 351 356 358 0 2 4 5 5 4
221 218 214 215 217 216 218 221 221 221 223 225 228 230 232 233 234 238 241 243 245 247 249 250 250 249 250 251 253 253 252 253 255 258 262 264 264 262 261 262 262 262 263 259 255 257 262 266 268 264 265 266 265 271 277 287 296 288 279 287 292 298 308 313 320 320 320 327 336 345 348 345 344 347 347 355 2 2 2 3 4 5 6 6 7
221 220 217 216 215 216 218 220 222 223 225 228 229 231 233 234 234 236 239 240 242 244 246 247 247 248 249 249 250 250 250 251 253 256 260 263 264 263 261 261 262 261 259 257 255 255 256 260 263 260 257 256 259 266 262 268 295 296 286 290 290 289 298 311 321 322 323 329 327 330 342 338 338 346 355 10 9 3 4 6 6 7 5 5 7
224 222 221 219 217 216 217 220 223 224 225 227 229 231 234 236 236 238 240 241 243 243 244 246 247 247 247 247 247 247 247 250 253 255 258 260 262 262 259 257 258 257 257 256 254 255 256 257 258 261 262 256 252 259 257 254 277 282 280 291 294 291 295 306 317 322 326 329 320 321 342 341 324 335 10 27 15 3 7 9 8 8 6 5 6
227 227 225 222 220 219 218 220 223 225 225 226 227 229 233 235 236 238 241 243 244 245 245 246 246 247 248 248 247 247 246 246 250 252 253 259 263 262 262 262 259 259 261 261 261 262 266 269 272 277 284 280 268 261 260 259 263 265 273 289 296 299 298 301 309 316 325 327 324 331 344 339 312 315 34 45 26 10 11 14 11 10 8 6 7
230 228 228 226 223 222 221 222 223 224 225 226 227 228 229 232 236 239 242 245 246 248 249 249 249 248 247 247 248 249 249 247 246 246 247 256 262 261 265 270 269 274 276 272 270 275 280 284 287 289 293 290 284 272 254 253 262 268 281 289 292 297 301 303 303 307 322 325 327 337 340 336 342 349 30 53 38 22 17 17 15 12 10 8 9
233 229 228 228 227 225 222 221 222 224 226 227 227 226 226 229 235 240 243 246 248 250 252 253 254 252 249 249 250 250 250 248 247 249 251 255 257 254 257 263 262 265 272 275 276 276 274 273 276 279 274 278 282 276 257 248 265 268 276 288 293 300 304 304 303 313 339 330 330 336 334 339 351 350 22 52 45 37 26 20 18 14 12 13 14
235 229 227 227 227 228 228 225 224 225 226 225 224 226 231 236 240 241 243 247 247 249 252 252 254 256 254 253 252 250 248 246 248 252 251 250 250 251 254 258 257 252 254 261 263 260 260 258 259 265 260 262 283 284 276 266 275 276 284 291 294 298 299 301 307 320 344 338 335 331 324 335 348 344 38 67 52 41 31 22 19 16 15 19 21
242 232 227 227 226 228 231 233 233 233 231 227 223 228 236 241 243 243 244 249 250 248 248 250 252 253 254 255 255 252 249 246 245 247 246 245 248 253 256 259 260 255 251 251 251 249 251 255 254 257 255 255 280 283 281 284 290 287 291 291 291 293 293 301 311 320 339 338 334 327 321 321 328 353 66 86 65 44 37 29 22 21 22 22 23
245 240 231 227 228 231 235 237 239 240 239 234 227 230 239 243 248 252 249 250 254 250 248 251 253 252 251 253 256 256 254 253 249 245 244 248 254 259 263 264 263 263 260 255 254 252 249 253 258 257 257 261 269 272 276 291 292 287 290 291 295 300 301 308 317 327 350 346 340 330 321 316 317 7 74 103 92 62 47 37 26 21 22 22 21
239 246 241 237 234 234 239 245 252 257 257 247 233 233 242 246 251 258 254 251 253 251 249 251 253 253 252 252 255 257 257 255 251 243 239 247 256 262 265 264 260 260 261 259 260 257 246 242 247 254 260 261 259 262 266 266 271 280 290 293 298 303 306 313 326 345 356 358 352 327 315 320 325 345 51 129 124 89 55 33 28 18 15 17 18
222 234 244 252 251 242 239 246 260 271 285 289 255 235 239 247 253 260 259 254 254 254 256 258 255 251 251 251 253 256 257 252 245 242 244 248 256 260 261 259 256 256 256 253 252 249 242 239 241 250 259 257 249 253 254 247 264 279 282 288 296 298 299 298 242 131 49 21 13 335 313 325 337 336 343 165 143 112 80 25 15 13 10 10 10
218 224 233 252 259 251 245 248 256 257 262 283 286 268 259 265 270 269 261 254 256 259 262 265 261 253 252 252 251 252 254 251 244 246 253 257 260 264 263 260 257 256 254 251 246 242 241 240 237 240 247 246 242 245 241 237 255 273 275 280 279 275 286 290 268 165 125 50 29 3 319 318 339 338 326 261 196 150 138 87 8 6 7 3 1
210 206 206 234 254 253 248 249 256 250 243 255 271 273 271 273 277 272 260 252 256 258 257 260 261 258 255 253 250 249 252 253 251 253 260 263 263 264 263 262 261 257 255 254 253 251 246 242 236 235 240 242 242 244 243 245 253 254 258 271 269 265 270 279 285 181 132 83 35 15 324 316 338 337 326 306 250 229 192 170 346 353 358 356 352
202 194 183 202 233 244 242 239 239 238 239 250 261 266 266 266 269 275 273 264 262 260 258 260 266 265 259 252 249 250 253 257 258 259 263 264 263 260 259 262 260 256 254 251 249 252 251 244 239 239 242 242 241 242 239 241 243 236 249 266 268 273 269 266 287 278 130 86 42 22 344 334 346 341 331 319 281 236 187 155 19 344 347 347 344
192 197 180 184 212 232 242 243 242 242 243 250 258 265 272 274 273 275 278 275 275 274 271 269 272 273 270 263 256 254 257 264 263 260 262 264 262 257 258 261 257 253 254 250 243 244 245 238 235 239 242 236 232 233 227 223 220 207 226 287 284 280 282 291 308 288 164 69 41 30 9 343 347 353 339 326 308 252 186 195 318 334 332 328 329